KE5FMN Weather Reports


Display with metric or nautical units.
time (UTC)temp
F
wind
direction
speed
MPH
gust
MPH
rain 1hr
in
rain 24hr
in
rain mn
in
humidity
%
barometer
mb
20260906143101 93 0 0.0 1.0 0.00 0.00 0.00 58 1014.3
20260906141611 91 0 0.0 1.0 0.00 0.00 0.00 62 1014.3
20260906134617 88 83 0.0 0.0 0.00 0.00 0.00 66 1014.2
20260906133106 85 0 0.0 0.0 0.00 0.00 0.00 71 1014.2
20260906131602 82 0 0.0 0.0 0.00 0.00 0.00 75 1014.3
20260906130147 79 0 0.0 0.0 0.00 0.00 0.00 81 1014.3
20260906124609 77 0 0.0 0.0 0.00 0.00 0.00 85 1014.1
20260906123105 76 0 0.0 0.0 0.00 0.00 0.00 86 1014.0
20260906121608 75 0 0.0 0.0 0.00 0.00 0.00 86 1013.8
20260906120107 75 0 0.0 1.0 0.00 0.00 0.00 87 1013.6
20260906114607 75 0 0.0 0.0 0.00 0.00 0.00 86 1013.4
20260906113057 75 0 0.0 0.0 0.00 0.00 0.00 86 1013.0
20260906111557 75 0 0.0 0.0 0.00 0.00 0.00 86 1012.8
20260906110056 76 0 0.0 0.0 0.00 0.00 0.00 86 1012.7
20260906104556 76 0 0.0 0.0 0.00 0.00 0.00 85 1012.8
20260906103105 76 0 0.0 0.0 0.00 0.00 0.00 84 1012.6
20260906101553 77 0 0.0 0.0 0.00 0.00 0.00 83 1012.5
20260906100058 77 0 0.0 0.0 0.00 0.00 0.00 82 1012.5
20260906094602 78 0 0.0 0.0 0.00 0.00 0.00 81 1012.4
20260906093059 78 0 0.0 0.0 0.00 0.00 0.00 81 1012.4
20260906091606 79 0 0.0 0.0 0.00 0.00 0.00 80 1012.4
20260906090105 80 0 0.0 0.0 0.00 0.00 0.00 76 1012.2
20260906084603 81 313 0.0 1.0 0.00 0.00 0.00 74 1012.1
20260906083104 81 0 0.0 0.0 0.00 0.00 0.00 73 1012.1
20260906081604 82 0 0.0 0.0 0.00 0.00 0.00 72 1012.0
20260906080057 82 313 0.0 1.0 0.00 0.00 0.00 72 1012.0
20260906074556 82 312 0.0 2.0 0.00 0.00 0.00 71 1012.1
20260906073059 82 0 0.0 2.0 0.00 0.00 0.00 71 1012.3
20260906071554 81 302 0.0 1.0 0.00 0.00 0.00 73 1012.3
20260906070103 80 0 0.0 1.0 0.00 0.00 0.00 75 1012.5
20260906064558 80 0 0.0 0.0 0.00 0.00 0.00 74 1012.4
20260906063057 81 0 0.0 0.0 0.00 0.00 0.00 74 1012.6
20260906061624 83 0 0.0 1.0 0.00 0.00 0.00 68 1012.7
20260906060119 81 0 0.0 0.0 0.00 0.00 0.00 71 1012.8
20260906054556 80 0 0.0 0.0 0.00 0.00 0.00 74 1012.7
20260906053053 80 0 0.0 0.0 0.00 0.00 0.00 74 1012.6
20260906051608 81 0 0.0 0.0 0.00 0.00 0.00 73 1012.5
20260906050104 81 0 0.0 0.0 0.00 0.00 0.00 75 1012.3
20260906044557 81 0 0.0 0.0 0.00 0.00 0.00 73 1012.2
20260906043105 81 0 0.0 0.0 0.00 0.00 0.00 73 1012.1
20260906041601 82 0 0.0 0.0 0.00 0.00 0.00 71 1012.2
20260906040057 82 0 0.0 0.0 0.00 0.00 0.00 70 1012.3
20260906034602 83 0 0.0 0.0 0.00 0.00 0.00 71 1012.3
20260906033100 83 0 0.0 0.0 0.00 0.00 0.00 69 1012.4
20260906031600 84 0 0.0 0.0 0.00 0.00 0.00 68 1012.6
20260906030057 84 0 0.0 0.0 0.00 0.00 0.00 67 1012.5
20260906024559 84 0 0.0 0.0 0.00 0.00 0.00 67 1012.3
20260906023053 85 0 0.0 0.0 0.00 0.00 0.00 65 1012.2
20260906021601 86 0 0.0 0.0 0.00 0.00 0.00 64 1012.1
20260906020105 86 0 0.0 0.0 0.00 0.00 0.00 62 1011.7
20260906014606 87 0 0.0 0.0 0.00 0.00 0.00 60 1011.5
20260906013100 87 0 0.0 0.0 0.00 0.00 0.00 60 1011.2
20260906011604 87 0 0.0 0.0 0.00 0.00 0.00 58 1011.2
20260906010055 88 0 0.0 0.0 0.00 0.00 0.00 60 1010.9
20260906004601 89 0 0.0 0.0 0.00 0.00 0.00 58 1010.9
20260906003104 90 0 0.0 0.0 0.00 0.00 0.00 57 1011.0
20260906001554 91 0 0.0 0.0 0.00 0.00 0.00 55 1011.0
20260906000104 92 0 0.0 0.0 0.00 0.00 0.00 53 1011.2
20260905234557 93 0 0.0 0.0 0.00 0.00 0.00 52 1011.1
20260905233106 95 0 0.0 0.0 0.00 0.00 0.00 49 1010.9
20260905231602 97 0 0.0 1.0 0.00 0.00 0.00 46 1011.0
20260905230100 98 0 0.0 2.0 0.00 0.00 0.00 44 1011.0
20260905224604 100 131 0.0 2.0 0.00 0.00 0.00 43 1011.0
20260905223059 100 142 1.0 3.0 0.00 0.00 0.00 43 1011.0
20260905221602 99 142 0.0 1.0 0.00 0.00 0.00 43 1011.0
20260905214557 102 66 0.0 3.0 0.00 0.00 0.00 41 1011.2
20260905213054 100 0 0.0 2.0 0.00 0.00 0.00 43 1011.3
20260905211613 98 164 1.0 2.0 0.00 0.00 0.00 47 1011.3
20260905210110 97 0 0.0 2.0 0.00 0.00 0.00 49 1011.5
20260905204555 97 257 1.0 4.0 0.00 0.00 0.00 51 1011.9
20260905203101 100 0 0.0 2.0 0.00 0.00 0.00 42 1011.9
20260905201600 102 102 0.0 3.0 0.00 0.00 0.00 40 1012.1
20260905194556 102 0 1.0 4.0 0.00 0.00 0.00 41 1012.3
20260905193056 101 0 0.0 2.0 0.00 0.00 0.00 43 1012.5
20260905191601 99 0 0.0 1.0 0.00 0.00 0.00 46 1012.8
20260905190104 99 0 0.0 2.0 0.00 0.00 0.00 45 1013.0
20260905184602 100 0 0.0 1.0 0.00 0.00 0.00 45 1013.1
20260905183119 102 150 0.0 4.0 0.00 0.00 0.00 43 1013.2
20260905181602 104 167 0.0 4.0 0.00 0.00 0.00 40 1013.4
20260905174605 102 340 1.0 4.0 0.00 0.00 0.00 43 1013.7
20260905173100 102 70 1.0 3.0 0.00 0.00 0.00 41 1013.8
20260905171606 101 255 1.0 3.0 0.00 0.00 0.00 43 1014.0
20260905170057 100 0 0.0 3.0 0.00 0.00 0.00 44 1014.2
20260905164602 97 29 0.0 1.0 0.00 0.00 0.00 47 1014.4
20260905163058 97 158 0.0 3.0 0.00 0.00 0.00 47 1014.6
20260905161555 97 0 0.0 1.0 0.00 0.00 0.00 49 1014.8
20260905160058 98 277 1.0 2.0 0.00 0.00 0.00 47 1014.8
20260905154559 98 342 0.0 3.0 0.00 0.00 0.00 48 1014.9
20260905153106 96 0 0.0 4.0 0.00 0.00 0.00 51 1014.7
20260905151608 96 0 0.0 2.0 0.00 0.00 0.00 52 1014.8
20260905150103 95 94 0.0 3.0 0.00 0.00 0.00 54 1014.8
20260905144558 94 0 0.0 2.0 0.00 0.00 0.00 56 1015.0